Home > Weather > Corrientes > Past weeks

Flag for Argentina Weather for the Past 2 Weeks in Corrientes, Corrientes, Argentina

Now
46 °F

Clear.


Feels Like: 45 °F
Forecast: 42 / 66 °F
Wind: 3 mph from East

Location: Resistencia Aero.

Current Time: May 1, 2016 at 4:02:42 AM

Latest Report: May 1, 2016 at 2:00 AM


Visibility: 10 mi

Pressure: 30.18 "Hg

Humidity: 93%

Dew Point: 45 °F

Location of CorrientesLocation

Historic Weather in Corrientes — Graph

°F

Corrientes Temperature Yesterday

Maximum temperature yesterday: 64 °F (at 12:00 PM)
Minimum temperature yesterday: 46 °F (at 4:00 AM)
Average temperature yesterday: 55 °F

High & Low Weather Summary for the Past Weeks

 TemperatureHumidityPressure
High93 °F (Apr 17, 2:00 PM)100% (Apr 18, 8:00 AM)30.33 "Hg (Apr 18, 8:00 AM)
Low43 °F (Apr 28, 5:00 AM)26% (Apr 27, 1:00 PM)29.53 "Hg (Apr 24, 5:00 AM)
Average68 °F84%29.93 "Hg
* Reported Apr 16 3:00 AM — May 1 2:00 AM, Corrientes, Weather by CustomWeather, © 2016

Note: Actual official high and low records may vary slightly from our data, if they occured in-between our weather recording intervals... More about our weather records

Advertising

Corrientes Weather History for the Previous 24 Hours

Scroll right to see more
 ConditionsComfort  
Time TempWeatherWind HumidityBarometerVisibility
2:00 AM
Sun, May 1
46 °FClear.3 mph93%30.18 "Hg10 mi
1:00 AM46 °FClear.3 mph93%30.18 "Hg10 mi
12:00 AM48 °FClear.2 mph94%30.18 "Hg10 mi
11:00 PM
Sat, Apr 30
48 °FClear.1 mph94%30.21 "Hg10 mi
10:00 PM50 °FClear.1 mph88%30.21 "Hg10 mi
9:00 PM52 °FClear.3 mph88%30.21 "Hg10 mi
8:00 PM55 °FClear.3 mph77%30.18 "Hg10 mi
7:00 PM57 °FClear.5 mph67%30.18 "Hg10 mi
6:00 PM61 °FClear.5 mph55%30.18 "Hg10 mi
5:00 PM64 °FPassing clouds.6 mph49%30.18 "HgN/A
4:00 PM64 °FPassing clouds.7 mph52%30.18 "HgN/A
3:00 PM64 °FPassing clouds.6 mph49%30.21 "HgN/A
2:00 PM64 °FPassing clouds.9 mph46%30.24 "HgN/A
1:00 PM64 °FScattered clouds.8 mph49%30.27 "HgN/A
12:00 PM64 °FScattered clouds.6 mph52%30.30 "HgN/A
11:00 AM61 °FPassing clouds.8 mph63%30.30 "HgN/A
10:00 AM59 °FPassing clouds.7 mph77%30.30 "HgN/A
9:00 AM54 °FPassing clouds.3 mph88%30.27 "HgN/A
8:00 AM46 °FClear.No wind100%30.27 "Hg4 mi
7:00 AM46 °FClear.No wind93%30.27 "Hg4 mi
6:00 AM46 °FClear.3 mph100%30.27 "Hg10 mi
5:00 AM46 °FClear.3 mph100%30.24 "Hg10 mi
4:00 AM46 °FClear.3 mph100%30.27 "Hg10 mi
Weather by CustomWeather, © 2016

See weather overviewHow to use our weather pages